Weather in Largs

United Kingdom     55°47′30″N   4°51′48″W
temp.,
°C
wind,
m/s
gust,
m/s
humid.,
%
clouds,
%
prec.,
mm/h
press.,
hPa
HPBL,
m
19 may, wed
wed1901:00+5wnw23875 0.0 101452
04:00+5wnw22892 0.0 101453
07:00+7wnw23875 0.0 1015200
10:00+10w44724 0.0 1016693
13:00+11sw456810 0.1 1017779
16:00+11w457313 0.1 1017853
19:00+11w46757 0.3 1017714
22:00+8w33895 0.0 101851
20 may, thu
thu2001:00+6sse11925 0.0 101717
04:00+5ene339487 0.0 101676
07:00+6ene4793100 0.0 1014226
10:00+10sse4685100 0.7 1011762
13:00+9se71288100 2.9 10081166
16:00+7ese101589100 0.7 1002925
19:00+8e81392100 2.1 997807
22:00+8ene81495100 4.1 994762
21 may, fri
fri2101:00+8ene71197100 6.1 992504
04:00+8ene81296100 1.8 990540
07:00+8ene91396100 2.3 990631
10:00+8ne81394100 0.2 991987
13:00+9ne91491100 0.4 9921218
16:00+9nne91486100 0.2 9941113
19:00+7nne71385100 0.3 9961109
22:00+7nne5107385 0.1 9991057
22 may, sat
sat2201:00+4n2289100 0.1 100188
04:00+3n2290100 0.0 100271
07:00+5n228298 0.0 1004177
10:00+8wnw336117 0.1 10041181
13:00+9nw666288 0.2 10051317
16:00+9wnw875447 0.1 10061377
19:00+8wnw67615 0.1 10061204
22:00+5w466898 0.0 1006285
23 may, sun
sun2301:00+5sw3576100 0.0 1005238
04:00+6s598691 0.5 1002562
07:00+5sse61192100 1.1 998972
10:00+7ssw588985 4.4 995591
13:00+9wsw447582 6.4 9931119
16:00+10ssw667096 0.8 9921123
19:00+7wnw36809 1.4 992526
22:00+4nw229041 0.0 99376